Location: Aldenham
(51.6667°N, 0.3500°W)
Time: 15:57:27
(UTC+00:00)

Geosat FO - Pass Details

Date: 18 November 2025
Orbit: 360 x 445 km, 108.0° (Epoch: 13 December)

Event Time Altitude Azimuth Distance (km) Brightness Sun altitude
Exits shadow 17:57:40 17° 155° (SSE) 1,033 6.1 -16.8°
Maximum altitude 17:59:45 75° 239° (WSW) 381 4.1 -17.1°
Drops below altitude 10° 18:02:36 10° 326° (NW) 1,359 7.1 -17.5°
Sets 18:04:32 0° 328° (NNW) 2,216 8.2 -17.8°
